Time,TemperatureF,DewpointF,PressureIn,WindDirection,WindDirectionDegrees,WindSpeedMPH,WindSpeedGustMPH,Humidity,HourlyPrecipIn,Conditions,Clouds,dailyrainin,SoftwareType,DateUTC
2013-03-03 00:03:00,35.6,35.4,30.15,West,270,0.0,1.0,99,0.00,,,0.30,meteohub,2013-03-03 08:03:00,
2013-03-03 00:08:00,35.4,35.2,30.15,West,270,0.0,0.0,99,0.00,,,0.00,meteohub,2013-03-03 08:08:00,
2013-03-03 00:13:00,35.8,35.6,30.15,West,270,0.0,0.0,99,0.00,,,0.00,meteohub,2013-03-03 08:13:00,
2013-03-03 00:18:00,35.4,35.2,30.15,North,-999,-999.0,0.0,99,0.00,,,0.00,meteohub,2013-03-03 08:18:00,
2013-03-03 00:23:00,35.2,35.1,30.15,North,-999,-999.0,0.0,99,0.00,,,0.00,meteohub,2013-03-03 08:23:00,
2013-03-03 00:28:00,35.1,34.9,30.15,North,-999,-999.0,-999.0,99,0.00,,,0.00,meteohub,2013-03-03 08:28:00,
2013-03-03 00:33:00,35.1,34.9,30.15,North,-999,-999.0,-999.0,99,0.00,,,0.00,meteohub,2013-03-03 08:33:00,
2013-03-03 00:38:00,33.8,33.6,30.15,SW,225,0.0,-999.0,99,0.00,,,0.00,meteohub,2013-03-03 08:38:00,
2013-03-03 00:43:00,33.8,33.6,30.15,SW,225,0.0,0.0,99,0.00,,,0.00,meteohub,2013-03-03 08:43:00,
2013-03-03 00:48:00,34.0,33.8,30.15,WSW,248,1.0,0.0,99,0.00,,,0.00,meteohub,2013-03-03 08:48:00,
2013-03-03 00:53:00,34.0,33.8,30.16,WSW,248,1.0,2.0,99,0.00,,,0.00,meteohub,2013-03-03 08:53:00,
2013-03-03 00:58:00,34.0,33.8,30.16,SW,225,0.0,2.0,99,0.00,,,0.00,meteohub,2013-03-03 08:58:00,
2013-03-03 01:03:00,34.0,33.8,30.16,SW,225,0.0,2.0,99,0.00,,,0.00,meteohub,2013-03-03 09:03:00,
2013-03-03 01:08:00,34.0,33.8,30.16,SW,225,0.0,1.0,99,0.00,,,0.00,meteohub,2013-03-03 09:08:00,
2013-03-03 01:13:00,34.0,33.8,30.16,SW,225,0.0,1.0,99,0.00,,,0.00,meteohub,2013-03-03 09:13:00,
2013-03-03 01:18:00,34.9,34.7,30.16,West,270,0.0,1.0,99,0.00,,,0.00,meteohub,2013-03-03 09:18:00,
2013-03-03 01:23:00,34.7,34.5,30.16,West,270,0.0,1.0,99,0.00,,,0.00,meteohub,2013-03-03 09:23:00,
2013-03-03 01:28:00,34.3,34.2,30.17,West,270,0.0,1.0,99,0.00,,,0.00,meteohub,2013-03-03 09:28:00,
2013-03-03 01:33:00,34.0,33.8,30.17,West,270,0.0,1.0,99,0.00,,,0.00,meteohub,2013-03-03 09:33:00,
2013-03-03 01:38:00,34.0,33.8,30.17,West,270,0.0,0.0,99,0.00,,,0.00,meteohub,2013-03-03 09:38:00,
2013-03-03 01:43:00,33.8,33.6,30.17,West,270,0.0,0.0,99,0.00,,,0.00,meteohub,2013-03-03 09:43:00,
2013-03-03 01:48:00,33.8,33.6,30.17,West,270,0.0,0.0,99,0.00,,,0.00,meteohub,2013-03-03 09:48:00,
2013-03-03 01:53:00,33.6,33.4,30.17,West,270,0.0,0.0,99,0.00,,,0.00,meteohub,2013-03-03 09:53:00,
2013-03-03 01:58:00,33.4,33.3,30.17,West,270,0.0,0.0,99,0.00,,,0.00,meteohub,2013-03-03 09:58:00,
2013-03-03 02:03:00,33.1,32.9,30.17,West,270,0.0,0.0,99,0.00,,,0.00,meteohub,2013-03-03 10:03:00,
2013-03-03 02:08:00,32.9,32.7,30.17,West,270,0.0,0.0,99,0.00,,,0.00,meteohub,2013-03-03 10:08:00,
2013-03-03 02:13:00,32.5,32.4,30.18,West,270,0.0,0.0,99,0.00,,,0.00,meteohub,2013-03-03 10:13:00,
2013-03-03 02:18:00,32.4,32.2,30.18,West,270,0.0,0.0,99,0.00,,,0.00,meteohub,2013-03-03 10:18:00,
2013-03-03 02:23:00,32.4,32.2,30.18,West,270,0.0,0.0,99,0.00,,,0.00,meteohub,2013-03-03 10:23:00,
2013-03-03 02:28:00,32.4,32.2,30.18,West,270,0.0,0.0,99,0.00,,,0.00,meteohub,2013-03-03 10:28:00,
2013-03-03 02:33:00,32.2,32.0,30.18,West,270,0.0,0.0,99,0.00,,,0.00,meteohub,2013-03-03 10:33:00,
2013-03-03 02:38:00,32.4,32.2,30.18,West,270,0.0,0.0,99,0.00,,,0.00,meteohub,2013-03-03 10:38:00,
2013-03-03 02:43:00,32.2,32.0,30.18,SW,225,0.0,0.0,99,0.00,,,0.00,meteohub,2013-03-03 10:43:00,
2013-03-03 02:48:00,32.2,32.0,30.18,SW,225,0.0,1.0,99,0.00,,,0.00,meteohub,2013-03-03 10:48:00,
2013-03-03 02:54:00,32.0,31.8,30.17,SW,225,0.0,1.0,99,0.00,,,0.00,meteohub,2013-03-03 10:54:00,
2013-03-03 02:59:00,31.6,31.5,30.18,SW,225,0.0,1.0,99,0.00,,,0.00,meteohub,2013-03-03 10:59:00,
2013-03-03 03:04:00,33.6,33.4,30.17,SW,225,0.0,0.0,99,0.00,,,0.00,meteohub,2013-03-03 11:04:00,
2013-03-03 03:09:00,33.1,32.9,30.17,North,-999,-999.0,0.0,99,0.00,,,0.00,meteohub,2013-03-03 11:09:00,
2013-03-03 03:14:00,33.3,33.1,30.18,North,-999,-999.0,0.0,99,0.00,,,0.00,meteohub,2013-03-03 11:14:00,
2013-03-03 03:19:00,32.9,32.7,30.18,North,-999,-999.0,0.0,99,0.00,,,0.00,meteohub,2013-03-03 11:19:00,
2013-03-03 03:24:00,32.7,32.5,30.18,North,-999,-999.0,-999.0,99,0.00,,,0.00,meteohub,2013-03-03 11:24:00,
2013-03-03 03:29:00,32.5,32.4,30.18,North,-999,-999.0,-999.0,99,0.00,,,0.00,meteohub,2013-03-03 11:29:00,
2013-03-03 03:34:00,32.5,32.4,30.18,North,-999,-999.0,-999.0,99,0.00,,,0.00,meteohub,2013-03-03 11:34:00,
2013-03-03 03:39:00,32.7,32.5,30.19,North,-999,-999.0,-999.0,99,0.00,,,0.00,meteohub,2013-03-03 11:39:00,
2013-03-03 03:44:00,33.8,33.6,30.18,North,-999,-999.0,-999.0,99,0.00,,,0.00,meteohub,2013-03-03 11:44:00,
2013-03-03 03:49:00,32.2,32.0,30.18,South,180,0.0,-999.0,99,0.00,,,0.00,meteohub,2013-03-03 11:49:00,
2013-03-03 03:54:00,32.4,32.2,30.18,South,180,0.0,1.0,99,0.00,,,0.00,meteohub,2013-03-03 11:54:00,
2013-03-03 03:59:00,32.4,32.2,30.18,South,180,0.0,1.0,99,0.00,,,0.00,meteohub,2013-03-03 11:59:00,
2013-03-03 04:04:00,32.2,32.0,30.19,South,180,0.0,1.0,99,0.00,,,0.00,meteohub,2013-03-03 12:04:00,
2013-03-03 04:09:00,32.0,31.8,30.19,South,180,0.0,0.0,99,0.00,,,0.00,meteohub,2013-03-03 12:09:00,
2013-03-03 04:14:00,31.8,31.6,30.19,South,180,0.0,0.0,99,0.00,,,0.00,meteohub,2013-03-03 12:14:00,
2013-03-03 04:19:00,31.6,31.5,30.19,South,180,0.0,0.0,99,0.00,,,0.00,meteohub,2013-03-03 12:19:00,
2013-03-03 04:24:00,31.5,31.3,30.19,South,180,0.0,0.0,99,0.00,,,0.00,meteohub,2013-03-03 12:24:00,
2013-03-03 04:29:00,31.1,30.9,30.19,South,180,0.0,0.0,99,0.00,,,0.00,meteohub,2013-03-03 12:29:00,
2013-03-03 04:34:00,31.1,30.9,30.19,South,180,0.0,0.0,99,0.00,,,0.00,meteohub,2013-03-03 12:34:00,
2013-03-03 04:39:00,40.1,39.9,30.19,South,180,0.0,0.0,99,0.00,,,0.00,meteohub,2013-03-03 12:39:00,
2013-03-03 04:44:00,39.4,39.2,30.19,SW,225,0.0,1.0,99,0.00,,,0.00,meteohub,2013-03-03 12:44:00,
2013-03-03 04:49:00,36.7,36.5,30.19,NW,315,2.0,2.0,99,0.00,,,0.00,meteohub,2013-03-03 12:49:00,
2013-03-03 04:54:00,33.3,33.1,30.19,SW,225,0.0,2.0,99,0.00,,,0.00,meteohub,2013-03-03 12:54:00,
2013-03-03 04:59:00,32.2,32.0,30.19,WSW,248,1.0,2.0,99,0.00,,,0.00,meteohub,2013-03-03 12:59:00,
2013-03-03 05:04:00,34.0,33.8,30.20,West,270,0.0,2.0,99,0.00,,,0.00,meteohub,2013-03-03 13:04:00,
2013-03-03 05:09:00,34.2,34.0,30.19,West,270,1.0,2.0,99,0.00,,,0.00,meteohub,2013-03-03 13:09:00,
2013-03-03 05:14:00,33.8,33.6,30.20,North,0,1.0,1.0,99,0.00,,,0.00,meteohub,2013-03-03 13:14:00,
2013-03-03 05:19:00,34.5,34.3,30.20,West,270,0.0,2.0,99,0.00,,,0.00,meteohub,2013-03-03 13:19:00,
2013-03-03 05:24:00,33.8,33.6,30.20,WSW,248,2.0,2.0,99,0.00,,,0.00,meteohub,2013-03-03 13:24:00,
2013-03-03 05:29:00,34.5,34.3,30.20,North,0,0.0,1.0,99,0.00,,,0.00,meteohub,2013-03-03 13:29:00,
2013-03-03 05:34:00,41.5,41.4,30.20,SW,225,0.0,2.0,99,0.00,,,0.00,meteohub,2013-03-03 13:34:00,
2013-03-03 05:39:00,35.6,35.4,30.20,SW,225,0.0,2.0,99,0.00,,,0.00,meteohub,2013-03-03 13:39:00,
2013-03-03 05:44:00,35.1,34.9,30.20,SW,225,2.0,2.0,99,0.00,,,0.00,meteohub,2013-03-03 13:44:00,
2013-03-03 05:49:00,34.5,34.3,30.20,North,0,1.0,2.0,99,0.00,,,0.00,meteohub,2013-03-03 13:49:00,
2013-03-03 05:54:00,34.7,34.5,30.21,North,0,1.0,3.0,99,0.00,,,0.00,meteohub,2013-03-03 13:54:00,
2013-03-03 05:59:00,35.1,34.9,30.20,West,270,1.0,3.0,99,0.00,,,0.00,meteohub,2013-03-03 13:59:00,
2013-03-03 06:04:00,35.1,34.9,30.20,West,270,1.0,3.0,99,0.00,,,0.00,meteohub,2013-03-03 14:04:00,
2013-03-03 06:09:00,34.0,33.8,30.21,South,180,1.0,2.0,99,0.00,,,0.00,meteohub,2013-03-03 14:09:00,
2013-03-03 06:14:00,35.4,35.2,30.21,SW,225,0.0,2.0,99,0.00,,,0.00,meteohub,2013-03-03 14:14:00,
2013-03-03 06:19:00,34.0,33.8,30.21,SW,225,2.0,2.0,99,0.00,,,0.00,meteohub,2013-03-03 14:19:00,
2013-03-03 06:24:00,34.0,33.8,30.20,SW,225,1.0,1.0,99,0.00,,,0.00,meteohub,2013-03-03 14:24:00,
2013-03-03 06:29:00,34.2,34.0,30.21,SW,225,0.0,2.0,99,0.00,,,0.00,meteohub,2013-03-03 14:29:00,
2013-03-03 06:34:00,34.0,33.8,30.21,SW,225,0.0,2.0,99,0.00,,,0.00,meteohub,2013-03-03 14:34:00,
2013-03-03 06:39:00,35.1,34.9,30.20,SW,225,0.0,2.0,99,0.00,,,0.00,meteohub,2013-03-03 14:39:00,
2013-03-03 06:44:00,34.9,34.7,30.21,SW,225,0.0,2.0,99,0.00,,,0.00,meteohub,2013-03-03 14:44:00,
2013-03-03 06:49:00,33.6,33.4,30.21,SW,225,0.0,2.0,99,0.00,,,0.00,meteohub,2013-03-03 14:49:00,
2013-03-03 06:54:00,33.4,33.3,30.21,SW,225,1.0,2.0,99,0.00,,,0.00,meteohub,2013-03-03 14:54:00,
2013-03-03 06:59:00,34.2,34.0,30.21,West,270,0.0,2.0,99,0.00,,,0.00,meteohub,2013-03-03 14:59:00,
2013-03-03 07:04:00,33.6,33.4,30.21,SW,225,0.0,2.0,99,0.00,,,0.00,meteohub,2013-03-03 15:04:00,
2013-03-03 07:09:00,33.4,33.3,30.21,SW,225,2.0,2.0,99,0.00,,,0.00,meteohub,2013-03-03 15:09:00,
2013-03-03 07:14:00,33.8,33.6,30.21,SW,225,0.0,2.0,99,0.00,,,0.00,meteohub,2013-03-03 15:14:00,
2013-03-03 07:19:00,34.7,34.5,30.21,SW,225,0.0,2.0,99,0.00,,,0.00,meteohub,2013-03-03 15:19:00,
2013-03-03 07:24:00,33.4,33.3,30.22,ENE,68,0.0,2.0,99,0.00,,,0.00,meteohub,2013-03-03 15:24:00,
2013-03-03 07:29:00,34.7,34.5,30.22,ENE,68,0.0,1.0,99,0.00,,,0.00,meteohub,2013-03-03 15:29:00,
2013-03-03 07:34:00,41.2,41.0,30.22,SW,225,1.0,0.0,99,0.00,,,0.00,meteohub,2013-03-03 15:34:00,
2013-03-03 07:39:00,34.7,34.5,30.21,West,270,0.0,1.0,99,0.00,,,0.00,meteohub,2013-03-03 15:39:00,
2013-03-03 07:45:00,35.6,35.4,30.22,West,270,0.0,1.0,99,0.00,,,0.00,meteohub,2013-03-03 15:45:00,
2013-03-03 07:50:00,34.9,34.7,30.22,North,0,0.0,1.0,99,0.00,,,0.00,meteohub,2013-03-03 15:50:00,
2013-03-03 07:55:00,41.7,41.5,30.21,SW,225,1.0,1.0,99,0.00,,,0.00,meteohub,2013-03-03 15:55:00,
2013-03-03 08:00:00,35.6,35.4,30.22,North,0,0.0,1.0,99,0.00,,,0.00,meteohub,2013-03-03 16:00:00,
2013-03-03 08:05:00,36.7,36.5,30.22,South,180,0.0,1.0,99,0.00,,,0.00,meteohub,2013-03-03 16:05:00,
2013-03-03 08:10:00,35.6,35.4,30.22,SW,225,0.0,1.0,99,0.00,,,0.00,meteohub,2013-03-03 16:10:00,
2013-03-03 08:15:00,36.0,35.8,30.22,West,270,1.0,1.0,99,0.00,,,0.00,meteohub,2013-03-03 16:15:00,
2013-03-03 08:20:00,37.0,36.9,30.22,North,0,0.0,2.0,99,0.00,,,0.00,meteohub,2013-03-03 16:20:00,
2013-03-03 08:25:00,38.3,38.1,30.22,North,0,1.0,2.0,99,0.00,,,0.00,meteohub,2013-03-03 16:25:00,
2013-03-03 08:30:00,38.7,38.5,30.22,West,270,1.0,2.0,99,0.00,,,0.00,meteohub,2013-03-03 16:30:00,
2013-03-03 08:35:00,41.5,41.4,30.22,West,270,1.0,1.0,99,0.00,,,0.00,meteohub,2013-03-03 16:35:00,
2013-03-03 08:40:00,37.4,37.2,30.23,SW,225,2.0,2.0,99,0.00,,,0.00,meteohub,2013-03-03 16:40:00,
2013-03-03 08:45:00,38.1,37.9,30.22,West,270,1.0,2.0,99,0.00,,,0.00,meteohub,2013-03-03 16:45:00,
2013-03-03 08:50:00,41.9,41.7,30.23,West,270,0.0,2.0,99,0.00,,,0.00,meteohub,2013-03-03 16:50:00,
2013-03-03 08:55:00,44.2,44.1,30.22,SW,225,1.0,2.0,99,0.00,,,0.00,meteohub,2013-03-03 16:55:00,
2013-03-03 09:00:00,44.1,43.9,30.23,WSW,248,2.0,2.0,99,0.00,,,0.00,meteohub,2013-03-03 17:00:00,
2013-03-03 09:05:00,39.6,39.4,30.22,SW,225,2.0,2.0,99,0.00,,,0.00,meteohub,2013-03-03 17:05:00,
2013-03-03 09:10:00,44.4,44.2,30.23,WSW,248,1.0,3.0,99,0.00,,,0.00,meteohub,2013-03-03 17:10:00,
2013-03-03 09:15:00,39.9,39.7,30.22,West,270,1.0,4.0,99,0.00,,,0.00,meteohub,2013-03-03 17:15:00,
2013-03-03 09:20:00,39.9,39.7,30.22,WSW,248,2.0,4.0,99,0.00,,,0.00,meteohub,2013-03-03 17:20:00,
2013-03-03 09:25:00,41.2,41.0,30.23,West,270,1.0,6.0,99,0.00,,,0.00,meteohub,2013-03-03 17:25:00,
2013-03-03 09:30:00,41.7,41.5,30.22,West,270,1.0,6.0,99,0.00,,,0.00,meteohub,2013-03-03 17:30:00,
2013-03-03 09:35:00,42.8,42.6,30.22,West,270,0.0,3.0,99,0.01,,,0.01,meteohub,2013-03-03 17:35:00,
2013-03-03 09:40:00,44.2,42.3,30.22,North,0,2.0,4.0,93,0.01,,,0.01,meteohub,2013-03-03 17:40:00,
2013-03-03 09:45:00,50.9,46.6,30.22,South,180,2.0,4.0,85,0.01,,,0.01,meteohub,2013-03-03 17:45:00,
2013-03-03 09:50:00,48.6,43.9,30.22,North,0,0.0,4.0,84,0.01,,,0.01,meteohub,2013-03-03 17:50:00,
2013-03-03 09:55:00,48.6,42.1,30.22,South,180,2.0,4.0,78,0.01,,,0.01,meteohub,2013-03-03 17:55:00,
2013-03-03 10:00:00,50.9,43.5,30.22,North,0,1.0,4.0,76,0.01,,,0.01,meteohub,2013-03-03 18:00:00,
2013-03-03 10:05:00,54.3,46.2,30.22,South,180,2.0,3.0,74,0.01,,,0.01,meteohub,2013-03-03 18:05:00,
2013-03-03 10:10:00,52.5,44.4,30.21,West,270,1.0,3.0,74,0.01,,,0.01,meteohub,2013-03-03 18:10:00,
2013-03-03 10:15:00,54.9,45.7,30.22,SW,225,1.0,2.0,71,0.01,,,0.01,meteohub,2013-03-03 18:15:00,
2013-03-03 10:20:00,54.3,44.4,30.22,North,0,2.0,2.0,69,0.01,,,0.01,meteohub,2013-03-03 18:20:00,
2013-03-03 10:25:00,51.6,41.0,30.22,South,180,2.0,2.0,67,0.01,,,0.01,meteohub,2013-03-03 18:25:00,
2013-03-03 10:30:00,52.7,43.2,30.21,NW,315,0.0,2.0,70,0.00,,,0.01,meteohub,2013-03-03 18:30:00,
2013-03-03 10:35:00,55.9,43.2,30.22,West,270,3.0,3.0,62,0.00,,,0.01,meteohub,2013-03-03 18:35:00,
2013-03-03 10:40:00,55.0,42.6,30.22,West,270,2.0,3.0,63,0.00,,,0.01,meteohub,2013-03-03 18:40:00,
2013-03-03 10:45:00,54.5,40.8,30.22,West,270,2.0,3.0,60,0.00,,,0.01,meteohub,2013-03-03 18:45:00,
2013-03-03 10:50:00,58.1,44.8,30.22,SW,225,2.0,3.0,61,0.00,,,0.01,meteohub,2013-03-03 18:50:00,
2013-03-03 10:55:00,54.5,41.7,30.21,North,0,0.0,2.0,62,0.00,,,0.01,meteohub,2013-03-03 18:55:00,
2013-03-03 11:00:00,58.3,42.3,30.21,ENE,68,4.0,4.0,55,0.00,,,0.01,meteohub,2013-03-03 19:00:00,
2013-03-03 11:05:00,61.0,46.6,30.21,ENE,68,2.0,4.0,59,0.00,,,0.01,meteohub,2013-03-03 19:05:00,
2013-03-03 11:10:00,50.0,37.0,30.21,West,270,2.0,4.0,61,0.00,,,0.01,meteohub,2013-03-03 19:10:00,
2013-03-03 11:15:00,49.6,38.3,30.21,WSW,248,1.0,4.0,65,0.00,,,0.01,meteohub,2013-03-03 19:15:00,
2013-03-03 11:20:00,52.7,40.1,30.21,West,270,2.0,3.0,62,0.00,,,0.01,meteohub,2013-03-03 19:20:00,
2013-03-03 11:25:00,54.1,39.7,30.21,West,270,2.0,2.0,58,0.00,,,0.01,meteohub,2013-03-03 19:25:00,
2013-03-03 11:30:00,57.7,42.6,30.21,North,0,3.0,3.0,57,0.00,,,0.01,meteohub,2013-03-03 19:30:00,
2013-03-03 11:35:00,51.3,36.1,30.22,North,0,2.0,3.0,56,0.00,,,0.01,meteohub,2013-03-03 19:35:00,
2013-03-03 11:40:00,57.9,40.8,30.22,North,0,2.0,3.0,53,0.00,,,0.01,meteohub,2013-03-03 19:40:00,
2013-03-03 11:45:00,60.8,41.5,30.22,WSW,248,2.0,3.0,49,0.00,,,0.01,meteohub,2013-03-03 19:45:00,
2013-03-03 11:50:00,58.6,40.1,30.21,South,180,2.0,2.0,50,0.00,,,0.01,meteohub,2013-03-03 19:50:00,
2013-03-03 11:56:00,58.6,40.6,30.21,West,270,2.0,4.0,51,0.00,,,0.01,meteohub,2013-03-03 19:56:00,
2013-03-03 12:01:00,59.7,39.9,30.22,North,0,2.0,4.0,48,0.00,,,0.01,meteohub,2013-03-03 20:01:00,
2013-03-03 12:06:00,60.1,38.1,30.21,NE,45,2.0,4.0,44,0.00,,,0.01,meteohub,2013-03-03 20:06:00,
2013-03-03 12:11:00,61.7,39.0,30.22,North,0,2.0,4.0,43,0.00,,,0.01,meteohub,2013-03-03 20:11:00,
2013-03-03 12:16:00,58.5,36.0,30.22,North,0,2.0,5.0,43,0.00,,,0.01,meteohub,2013-03-03 20:16:00,
2013-03-03 12:21:00,55.9,34.3,30.22,SE,135,3.0,5.0,44,0.00,,,0.01,meteohub,2013-03-03 20:21:00,
2013-03-03 12:26:00,51.8,32.7,30.22,NE,45,2.0,5.0,48,0.00,,,0.01,meteohub,2013-03-03 20:26:00,
2013-03-03 12:31:00,50.4,32.9,30.22,NE,45,1.0,4.0,51,0.00,,,0.01,meteohub,2013-03-03 20:31:00,
2013-03-03 12:36:00,49.5,33.1,30.22,North,0,1.0,4.0,53,0.00,,,0.01,meteohub,2013-03-03 20:36:00,
2013-03-03 12:41:00,48.9,33.4,30.22,ENE,68,2.0,3.0,55,0.00,,,0.01,meteohub,2013-03-03 20:41:00,
2013-03-03 12:46:00,41.7,27.7,30.22,South,180,4.0,4.0,57,0.00,,,0.01,meteohub,2013-03-03 20:46:00,
2013-03-03 12:51:00,47.8,33.3,30.22,North,0,2.0,5.0,57,0.00,,,0.01,meteohub,2013-03-03 20:51:00,
2013-03-03 12:56:00,48.6,34.5,30.22,North,0,1.0,5.0,58,0.00,,,0.01,meteohub,2013-03-03 20:56:00,
2013-03-03 13:01:00,48.6,34.5,30.22,SE,135,2.0,5.0,58,0.00,,,0.01,meteohub,2013-03-03 21:01:00,
2013-03-03 13:06:00,51.6,36.5,30.22,NE,45,2.0,3.0,56,0.00,,,0.01,meteohub,2013-03-03 21:06:00,
2013-03-03 13:11:00,51.8,34.7,30.22,ENE,68,2.0,3.0,52,0.00,,,0.01,meteohub,2013-03-03 21:11:00,
2013-03-03 13:16:00,52.0,35.8,30.21,NE,45,1.0,3.0,54,0.00,,,0.01,meteohub,2013-03-03 21:16:00,
2013-03-03 13:21:00,54.3,39.4,30.21,SW,225,2.0,2.0,57,0.00,,,0.01,meteohub,2013-03-03 21:21:00,
2013-03-03 13:26:00,49.1,33.6,30.21,North,0,2.0,5.0,55,0.00,,,0.01,meteohub,2013-03-03 21:26:00,
2013-03-03 13:31:00,49.5,34.3,30.21,South,180,2.0,5.0,56,0.00,,,0.01,meteohub,2013-03-03 21:31:00,
2013-03-03 13:36:00,53.6,39.2,30.21,NE,45,1.0,5.0,58,0.00,,,0.01,meteohub,2013-03-03 21:36:00,
2013-03-03 13:41:00,50.9,37.0,30.22,West,270,2.0,5.0,59,0.00,,,0.01,meteohub,2013-03-03 21:41:00,
2013-03-03 14:11:00,48.6,34.9,30.22,West,270,2.0,2.0,59,0.00,,,0.01,meteohub,2013-03-03 22:11:00,
2013-03-03 14:16:00,49.3,34.2,30.22,WSW,248,3.0,3.0,56,0.00,,,0.01,meteohub,2013-03-03 22:16:00,
2013-03-03 14:21:00,49.3,33.8,30.21,West,270,1.0,3.0,55,0.00,,,0.01,meteohub,2013-03-03 22:21:00,
2013-03-03 14:26:00,48.6,33.6,30.22,North,0,2.0,3.0,56,0.00,,,0.01,meteohub,2013-03-03 22:26:00,
2013-03-03 14:31:00,49.8,35.2,30.22,West,270,3.0,3.0,57,0.00,,,0.01,meteohub,2013-03-03 22:31:00,
2013-03-03 14:36:00,49.8,35.2,30.22,North,0,2.0,3.0,57,0.00,,,0.01,meteohub,2013-03-03 22:36:00,
2013-03-03 14:41:00,50.9,35.2,30.22,NE,45,2.0,3.0,55,0.00,,,0.01,meteohub,2013-03-03 22:41:00,
2013-03-03 14:46:00,49.3,33.8,30.22,NE,45,3.0,3.0,55,0.00,,,0.01,meteohub,2013-03-03 22:46:00,
2013-03-03 14:51:00,53.6,37.8,30.22,North,0,2.0,3.0,55,0.00,,,0.01,meteohub,2013-03-03 22:51:00,
2013-03-03 14:56:00,49.5,33.4,30.22,West,270,2.0,4.0,54,0.00,,,0.01,meteohub,2013-03-03 22:56:00,
2013-03-03 15:01:00,49.3,33.8,30.22,West,270,1.0,4.0,55,0.00,,,0.01,meteohub,2013-03-03 23:01:00,
2013-03-03 15:06:00,49.3,33.8,30.22,North,0,2.0,4.0,55,0.00,,,0.01,meteohub,2013-03-03 23:06:00,
2013-03-03 15:11:00,50.4,34.9,30.22,North,0,1.0,2.0,55,0.00,,,0.01,meteohub,2013-03-03 23:11:00,
2013-03-03 15:16:00,50.2,35.6,30.22,North,0,4.0,4.0,57,0.00,,,0.01,meteohub,2013-03-03 23:16:00,
2013-03-03 15:21:00,53.1,39.9,30.22,SW,225,1.0,4.0,61,0.00,,,0.01,meteohub,2013-03-03 23:21:00,
2013-03-03 15:26:00,42.3,30.2,30.23,SSW,203,2.0,4.0,62,0.00,,,0.01,meteohub,2013-03-03 23:26:00,
2013-03-03 15:31:00,52.2,40.3,30.23,SW,225,2.0,4.0,64,0.00,,,0.01,meteohub,2013-03-03 23:31:00,
2013-03-03 15:36:00,52.5,41.5,30.23,East,90,2.0,3.0,66,0.00,,,0.01,meteohub,2013-03-03 23:36:00,
2013-03-03 15:41:00,46.9,36.5,30.23,West,270,2.0,3.0,67,0.00,,,0.01,meteohub,2013-03-03 23:41:00,
2013-03-03 15:46:00,45.7,35.8,30.23,WSW,248,0.0,3.0,68,0.00,,,0.01,meteohub,2013-03-03 23:46:00,
2013-03-03 15:51:00,50.7,41.0,30.23,SW,225,1.0,3.0,69,0.00,,,0.01,meteohub,2013-03-03 23:51:00,
2013-03-03 15:56:00,45.1,36.0,30.23,North,0,0.0,3.0,70,0.00,,,0.01,meteohub,2013-03-03 23:56:00,
2013-03-03 16:01:00,45.5,36.7,30.23,NE,45,0.0,2.0,71,0.00,,,0.01,meteohub,2013-03-04 00:01:00,
2013-03-03 16:06:00,44.8,36.3,30.23,North,0,1.0,2.0,72,0.00,,,0.01,meteohub,2013-03-04 00:06:00,
2013-03-03 16:11:00,43.9,35.4,30.23,SE,135,2.0,2.0,72,0.00,,,0.01,meteohub,2013-03-04 00:11:00,
2013-03-03 16:16:00,44.2,35.8,30.23,South,180,0.0,2.0,72,0.00,,,0.01,meteohub,2013-03-04 00:16:00,
2013-03-03 16:21:00,45.1,37.0,30.23,West,270,0.0,2.0,73,0.00,,,0.01,meteohub,2013-03-04 00:21:00,
2013-03-03 16:26:00,45.7,37.2,30.23,North,0,0.0,2.0,72,0.00,,,0.01,meteohub,2013-03-04 00:26:00,
2013-03-03 16:31:00,44.8,36.3,30.23,WSW,248,0.0,1.0,72,0.00,,,0.01,meteohub,2013-03-04 00:31:00,
2013-03-03 16:36:00,44.8,36.3,30.23,North,0,0.0,1.0,72,0.00,,,0.01,meteohub,2013-03-04 00:36:00,
2013-03-03 16:41:00,44.1,35.6,30.23,NE,45,1.0,1.0,72,0.00,,,0.01,meteohub,2013-03-04 00:41:00,
2013-03-03 16:46:00,43.7,35.6,30.23,ENE,68,1.0,1.0,73,0.00,,,0.01,meteohub,2013-03-04 00:46:00,
2013-03-03 16:51:00,44.4,36.3,30.23,North,0,0.0,2.0,73,0.00,,,0.01,meteohub,2013-03-04 00:51:00,
2013-03-03 16:56:00,43.7,36.0,30.23,NE,45,0.0,2.0,74,0.00,,,0.01,meteohub,2013-03-04 00:56:00,
2013-03-03 17:01:00,44.1,36.3,30.23,West,270,0.0,2.0,74,0.00,,,0.01,meteohub,2013-03-04 01:01:00,
2013-03-03 17:06:00,43.9,36.5,30.23,West,270,0.0,1.0,75,0.00,,,0.01,meteohub,2013-03-04 01:06:00,
2013-03-03 17:11:00,43.0,35.6,30.23,North,0,1.0,1.0,75,0.00,,,0.01,meteohub,2013-03-04 01:11:00,
2013-03-03 17:16:00,43.3,36.3,30.23,West,270,0.0,1.0,76,0.00,,,0.01,meteohub,2013-03-04 01:16:00,
2013-03-03 17:22:00,42.8,36.1,30.24,West,270,0.0,1.0,77,0.00,,,0.01,meteohub,2013-03-04 01:22:00,
2013-03-03 17:27:00,42.3,36.0,30.24,West,270,0.0,1.0,78,0.00,,,0.01,meteohub,2013-03-04 01:27:00,
2013-03-03 17:32:00,41.7,35.8,30.23,West,270,0.0,0.0,79,0.00,,,0.01,meteohub,2013-03-04 01:32:00,
2013-03-03 17:37:00,41.4,35.4,30.24,West,270,0.0,0.0,79,0.00,,,0.01,meteohub,2013-03-04 01:37:00,
2013-03-03 17:42:00,40.3,34.5,30.23,WSW,248,0.0,0.0,80,0.00,,,0.01,meteohub,2013-03-04 01:42:00,
2013-03-03 17:47:00,39.9,34.5,30.24,WSW,248,0.0,0.0,81,0.00,,,0.01,meteohub,2013-03-04 01:47:00,
2013-03-03 17:52:00,39.6,34.2,30.24,WSW,248,0.0,0.0,81,0.00,,,0.01,meteohub,2013-03-04 01:52:00,
2013-03-03 17:57:00,39.0,34.0,30.24,WSW,248,0.0,0.0,82,0.00,,,0.01,meteohub,2013-03-04 01:57:00,
2013-03-03 18:02:00,38.5,33.8,30.24,WSW,248,0.0,0.0,83,0.00,,,0.01,meteohub,2013-03-04 02:02:00,
2013-03-03 18:07:00,38.1,33.4,30.24,WSW,248,0.0,0.0,83,0.00,,,0.01,meteohub,2013-03-04 02:07:00,
2013-03-03 18:12:00,37.6,33.4,30.24,WSW,248,0.0,0.0,85,0.00,,,0.01,meteohub,2013-03-04 02:12:00,
2013-03-03 18:17:00,37.4,33.6,30.25,WSW,248,0.0,0.0,86,0.00,,,0.01,meteohub,2013-03-04 02:17:00,
2013-03-03 18:22:00,37.0,33.3,30.25,WSW,248,0.0,0.0,86,0.00,,,0.01,meteohub,2013-03-04 02:22:00,
2013-03-03 18:27:00,36.7,33.3,30.25,WSW,248,0.0,0.0,87,0.00,,,0.01,meteohub,2013-03-04 02:27:00,
2013-03-03 18:32:00,36.5,33.3,30.24,WSW,248,0.0,0.0,88,0.00,,,0.01,meteohub,2013-03-04 02:32:00,
2013-03-03 18:37:00,36.5,33.3,30.24,WSW,248,0.0,0.0,88,0.00,,,0.01,meteohub,2013-03-04 02:37:00,
2013-03-03 18:42:00,36.3,33.4,30.25,WSW,248,0.0,0.0,89,0.00,,,0.01,meteohub,2013-03-04 02:42:00,
2013-03-03 18:47:00,36.1,33.3,30.25,WSW,248,0.0,0.0,89,0.00,,,0.01,meteohub,2013-03-04 02:47:00,
2013-03-03 18:52:00,35.8,33.1,30.25,WSW,248,0.0,0.0,90,0.00,,,0.01,meteohub,2013-03-04 02:52:00,
2013-03-03 18:57:00,35.6,33.3,30.25,WSW,248,0.0,0.0,91,0.00,,,0.01,meteohub,2013-03-04 02:57:00,
2013-03-03 19:02:00,35.4,33.1,30.25,WSW,248,0.0,0.0,91,0.00,,,0.01,meteohub,2013-03-04 03:02:00,
2013-03-03 19:07:00,35.2,33.1,30.25,WSW,248,0.0,0.0,92,0.00,,,0.01,meteohub,2013-03-04 03:07:00,
2013-03-03 19:12:00,35.1,32.9,30.25,WSW,248,0.0,0.0,92,0.00,,,0.01,meteohub,2013-03-04 03:12:00,
2013-03-03 19:17:00,35.1,33.3,30.25,SW,225,0.0,0.0,93,0.00,,,0.01,meteohub,2013-03-04 03:17:00,
2013-03-03 19:22:00,34.7,32.9,30.25,WSW,248,0.0,0.0,93,0.00,,,0.01,meteohub,2013-03-04 03:22:00,
2013-03-03 19:27:00,34.5,32.7,30.25,WSW,248,0.0,0.0,93,0.00,,,0.01,meteohub,2013-03-04 03:27:00,
2013-03-03 19:32:00,34.3,32.7,30.25,WSW,248,0.0,0.0,94,0.00,,,0.01,meteohub,2013-03-04 03:32:00,
2013-03-03 19:37:00,34.5,32.9,30.25,WSW,248,0.0,0.0,94,0.00,,,0.01,meteohub,2013-03-04 03:37:00,
2013-03-03 19:42:00,34.5,32.9,30.25,North,-999,-999.0,0.0,94,0.00,,,0.01,meteohub,2013-03-04 03:42:00,
2013-03-03 19:47:00,34.3,32.7,30.25,WSW,248,0.0,0.0,94,0.00,,,0.01,meteohub,2013-03-04 03:47:00,
2013-03-03 19:52:00,34.0,32.4,30.25,SW,225,0.0,0.0,94,0.00,,,0.01,meteohub,2013-03-04 03:52:00,
2013-03-03 19:57:00,33.8,32.5,30.25,North,-999,-999.0,0.0,95,0.00,,,0.01,meteohub,2013-03-04 03:57:00,
2013-03-03 20:02:00,33.8,32.5,30.25,WSW,248,0.0,0.0,95,0.00,,,0.01,meteohub,2013-03-04 04:02:00,
2013-03-03 20:07:00,33.6,32.4,30.25,North,-999,-999.0,0.0,95,0.00,,,0.01,meteohub,2013-03-04 04:07:00,
2013-03-03 20:12:00,33.6,32.5,30.25,North,-999,-999.0,0.0,96,0.00,,,0.01,meteohub,2013-03-04 04:12:00,
2013-03-03 20:17:00,33.6,32.5,30.25,SW,225,0.0,0.0,96,0.00,,,0.01,meteohub,2013-03-04 04:17:00,
2013-03-03 20:22:00,33.4,32.4,30.25,North,-999,-999.0,0.0,96,0.00,,,0.01,meteohub,2013-03-04 04:22:00,
2013-03-03 20:27:00,33.3,32.2,30.24,North,-999,-999.0,0.0,96,0.00,,,0.01,meteohub,2013-03-04 04:27:00,
2013-03-03 20:32:00,33.3,32.5,30.25,SW,225,0.0,0.0,97,0.00,,,0.01,meteohub,2013-03-04 04:32:00,
2013-03-03 20:37:00,33.3,32.5,30.24,North,-999,-999.0,0.0,97,0.00,,,0.01,meteohub,2013-03-04 04:37:00,
2013-03-03 20:42:00,33.3,32.5,30.24,North,-999,-999.0,0.0,97,0.00,,,0.01,meteohub,2013-03-04 04:42:00,
2013-03-03 20:47:00,32.9,32.2,30.24,North,-999,-999.0,-999.0,97,0.00,,,0.01,meteohub,2013-03-04 04:47:00,
2013-03-03 20:52:00,32.7,32.0,30.24,North,-999,-999.0,-999.0,97,0.00,,,0.01,meteohub,2013-03-04 04:52:00,
2013-03-03 20:57:00,32.7,32.0,30.24,North,-999,-999.0,-999.0,97,0.00,,,0.01,meteohub,2013-03-04 04:57:00,
2013-03-03 21:00:00,32.5,32.0,30.25,North,-999,-999.0,-999.0,98,0.00,,,0.01,meteohub,2013-03-04 05:00:00,
2013-03-03 21:05:00,32.2,31.6,30.25,South,180,0.0,-999.0,98,0.00,,,0.01,meteohub,2013-03-04 05:05:00,
2013-03-03 21:10:00,33.6,33.1,30.25,South,180,0.0,0.0,98,0.00,,,0.01,meteohub,2013-03-04 05:10:00,
2013-03-03 21:15:00,33.6,33.1,30.25,North,-999,-999.0,0.0,98,0.00,,,0.01,meteohub,2013-03-04 05:15:00,
2013-03-03 21:20:00,33.6,33.1,30.25,North,-999,-999.0,0.0,98,0.00,,,0.01,meteohub,2013-03-04 05:20:00,
2013-03-03 21:25:00,33.1,32.9,30.25,West,270,0.0,0.0,99,0.00,,,0.01,meteohub,2013-03-04 05:25:00,
2013-03-03 21:30:00,33.1,32.9,30.25,West,270,0.0,0.0,99,0.00,,,0.01,meteohub,2013-03-04 05:30:00,
2013-03-03 21:35:00,33.1,32.9,30.25,West,270,0.0,0.0,99,0.00,,,0.01,meteohub,2013-03-04 05:35:00,
2013-03-03 21:40:00,33.1,32.9,30.25,West,270,0.0,0.0,99,0.00,,,0.01,meteohub,2013-03-04 05:40:00,
2013-03-03 21:45:00,33.8,33.6,30.25,SW,225,1.0,1.0,99,0.00,,,0.01,meteohub,2013-03-04 05:45:00,
2013-03-03 21:50:00,33.8,33.6,30.26,North,-999,-999.0,1.0,99,0.00,,,0.01,meteohub,2013-03-04 05:50:00,
2013-03-03 21:55:00,33.8,33.6,30.26,North,-999,-999.0,1.0,99,0.00,,,0.01,meteohub,2013-03-04 05:55:00,
2013-03-03 22:00:00,33.3,33.1,30.26,North,-999,-999.0,-999.0,99,0.00,,,0.01,meteohub,2013-03-04 06:00:00,
2013-03-03 22:05:00,33.1,32.9,30.26,North,-999,-999.0,-999.0,99,0.00,,,0.01,meteohub,2013-03-04 06:05:00,
2013-03-03 22:10:00,32.9,32.7,30.26,North,-999,-999.0,-999.0,99,0.00,,,0.01,meteohub,2013-03-04 06:10:00,
2013-03-03 22:15:00,32.7,32.5,30.26,North,-999,-999.0,-999.0,99,0.00,,,0.01,meteohub,2013-03-04 06:15:00,
2013-03-03 22:20:00,32.7,32.5,30.26,North,-999,-999.0,-999.0,99,0.00,,,0.01,meteohub,2013-03-04 06:20:00,
2013-03-03 22:25:00,32.7,32.5,30.26,North,-999,-999.0,-999.0,99,0.00,,,0.01,meteohub,2013-03-04 06:25:00,
2013-03-03 22:30:00,32.5,32.4,30.26,North,-999,-999.0,-999.0,99,0.00,,,0.01,meteohub,2013-03-04 06:30:00,
2013-03-03 22:35:00,32.4,32.2,30.26,North,-999,-999.0,-999.0,99,0.00,,,0.01,meteohub,2013-03-04 06:35:00,
2013-03-03 22:40:00,32.4,32.2,30.26,North,-999,-999.0,-999.0,99,0.00,,,0.01,meteohub,2013-03-04 06:40:00,
2013-03-03 22:45:00,32.5,32.4,30.26,North,-999,-999.0,-999.0,99,0.00,,,0.01,meteohub,2013-03-04 06:45:00,
2013-03-03 22:51:00,32.5,32.4,30.25,North,-999,-999.0,-999.0,99,0.00,,,0.01,meteohub,2013-03-04 06:51:00,
2013-03-03 22:56:00,32.5,32.4,30.25,North,-999,-999.0,-999.0,99,0.00,,,0.01,meteohub,2013-03-04 06:56:00,
2013-03-03 23:01:00,32.5,32.4,30.26,North,-999,-999.0,-999.0,99,0.00,,,0.01,meteohub,2013-03-04 07:01:00,
2013-03-03 23:06:00,32.4,32.2,30.26,North,-999,-999.0,-999.0,99,0.00,,,0.01,meteohub,2013-03-04 07:06:00,
2013-03-03 23:11:00,32.4,32.2,30.26,North,-999,-999.0,-999.0,99,0.00,,,0.01,meteohub,2013-03-04 07:11:00,
2013-03-03 23:16:00,32.2,32.0,30.26,North,-999,-999.0,-999.0,99,0.00,,,0.01,meteohub,2013-03-04 07:16:00,
2013-03-03 23:21:00,31.8,31.6,30.26,North,-999,-999.0,-999.0,99,0.00,,,0.01,meteohub,2013-03-04 07:21:00,
2013-03-03 23:26:00,31.6,31.5,30.25,North,-999,-999.0,-999.0,99,0.00,,,0.01,meteohub,2013-03-04 07:26:00,
2013-03-03 23:31:00,31.5,31.3,30.26,North,-999,-999.0,-999.0,99,0.00,,,0.01,meteohub,2013-03-04 07:31:00,
2013-03-03 23:36:00,31.3,31.1,30.26,North,-999,-999.0,-999.0,99,0.00,,,0.01,meteohub,2013-03-04 07:36:00,
2013-03-03 23:41:00,31.1,30.9,30.26,North,-999,-999.0,-999.0,99,0.00,,,0.01,meteohub,2013-03-04 07:41:00,
2013-03-03 23:46:00,30.9,30.7,30.26,North,-999,-999.0,-999.0,99,0.00,,,0.01,meteohub,2013-03-04 07:46:00,
2013-03-03 23:51:00,30.7,30.6,30.26,North,-999,-999.0,-999.0,99,0.00,,,0.01,meteohub,2013-03-04 07:51:00,
2013-03-03 23:56:00,30.7,30.6,30.26,North,-999,-999.0,-999.0,99,0.00,,,0.01,meteohub,2013-03-04 07:56:00,